Weather History for Zanesville, OH

Change the Weather History Date:

Thursday, May 9, 2013

  Actual Average Record
Temperature  
Mean Temperature 63 °F 59 °F  
Max Temperature 78 °F 70 °F 90 °F (1963)
Min Temperature 48 °F 47 °F 28 °F (1947)
Degree Days  
Heating Degree Days 2 7  
Month to date heating degree days 15 73  
Since 1 July heating degree days 5423 5430  
Cooling Degree Days 0 1  
Month to date cooling degree days 1 5  
Year to date cooling degree days 18 14  
Growing Degree Days 12 (Base 50)    
Moisture  
Dew Point 52 °F    
Average Humidity 70    
Maximum Humidity 100    
Minimum Humidity 40    
Precipitation  
Precipitation T in 0.13 in 1.10 in (2003)
Month to date precipitation 0.10 1.13  
Year to date precipitation 9.28 12.40  
Sea Level Pressure  
Sea Level Pressure 29.97 in    
Wind  
Wind Speed 3 mph (WSW)    
Max Wind Speed 14 mph    
Max Gust Speed 20 mph    
Visibility 4 miles    
Events Fog , Rain    
T = Trace of Precipitation, MM = Missing Value Source: NWS Daily Summary

Daily Weather History Graph

Daily Weather History Graph

Search for Another Location

Airport:

Trip Planner

Search our weather history database for the weather conditions in past years. The results will help you decide how hot, cold, wet, or windy it might be!

Date:

Astronomy

May. 09, 2013 Rise Set
Actual Time 6:18 AM EDT 8:30 PM EDT
Civil Twilight 5:48 AM EDT 9:00 PM EDT
Nautical Twilight 5:11 AM EDT 9:37 PM EDT
Astronomical Twilight 4:30 AM EDT 10:18 PM EDT
Moon 6:01 AM EDT (5/9) 8:24 PM EDT (5/9)
Length of Visible Light 15h 12m
Length of Day
14h 12m
Waning Crescent, 0% of the Moon is Illuminated
May 9
Waning Crescent
May 9
New
May 18
First Quarter
May 25
Full
May 31
Last Quarter

Hourly Weather History & Observations

Time (EDT) Temp. Dew Point Humidity Pressure Visibility Wind Dir Wind Speed Gust Speed Precip Events Conditions
12:53 AM 57.0 °F 55.0 °F 93% 29.96 in 7.0 mi West 3.5 mph - N/A   Overcast
1:53 AM 55.9 °F 54.0 °F 93% 29.95 in 3.0 mi Calm Calm - N/A   Clear
2:08 AM 53.6 °F 53.6 °F 100% 29.95 in 2.5 mi WSW 3.5 mph - N/A   Clear
2:26 AM 53.6 °F 53.6 °F 100% 29.95 in 1.8 mi Calm Calm - N/A   Mostly Cloudy
2:38 AM 55.4 °F 53.6 °F 94% 29.95 in 2.5 mi Calm Calm - N/A   Mostly Cloudy
2:45 AM 55.4 °F 53.6 °F 94% 29.95 in 4.0 mi Calm Calm - N/A   Mostly Cloudy
2:53 AM 55.0 °F 54.0 °F 96% 29.94 in 4.0 mi Calm Calm - N/A   Overcast
3:15 AM 53.6 °F 53.6 °F 100% 29.94 in 2.5 mi Calm Calm - N/A   Overcast
3:26 AM 53.6 °F 53.6 °F 100% 29.94 in 4.0 mi ENE 3.5 mph - N/A   Mostly Cloudy
3:51 AM 53.6 °F 51.8 °F 94% 29.94 in 2.5 mi SSW 3.5 mph - N/A   Partly Cloudy
3:53 AM 53.1 °F 52.0 °F 96% 29.94 in 3.0 mi Calm Calm - N/A   Clear
4:02 AM 53.6 °F 51.8 °F 94% 29.94 in 1.8 mi Calm Calm - N/A   Clear
4:07 AM 53.6 °F 51.8 °F 94% 29.94 in 0.8 mi Calm Calm - N/A   Clear
4:53 AM 52.0 °F 51.1 °F 97% 29.95 in 0.8 mi Calm Calm - N/A   Mostly Cloudy
5:09 AM 51.8 °F 51.8 °F 100% 29.95 in 1.5 mi Calm Calm - N/A   Mostly Cloudy
5:17 AM 51.8 °F 51.8 °F 100% 29.95 in 3.0 mi Calm Calm - N/A   Scattered Clouds
5:24 AM 51.8 °F 51.8 °F 100% 29.95 in 1.8 mi Calm Calm - N/A   Partly Cloudy
5:34 AM 51.8 °F 50.0 °F 94% 29.96 in 1.5 mi Calm Calm - N/A   Partly Cloudy
5:46 AM 51.8 °F 50.0 °F 94% 29.96 in 1.8 mi Calm Calm - N/A   Mostly Cloudy
5:48 AM 51.8 °F 50.0 °F 94% 29.96 in 0.8 mi Calm Calm - N/A   Mist
5:53 AM 50.0 °F 48.9 °F 96% 29.95 in 0.2 mi Calm Calm - N/A Fog Fog
6:21 AM 50.0 °F 48.2 °F 94% 29.96 in 1.0 mi Calm Calm - N/A   Clear
6:41 AM 50.0 °F 48.2 °F 94% 29.98 in 2.0 mi Calm Calm - N/A   Clear
6:48 AM 48.2 °F 48.2 °F 100% 29.98 in 1.0 mi Calm Calm - N/A   Clear
6:50 AM 48.2 °F 48.2 °F 100% 29.98 in 0.5 mi WSW 3.5 mph - N/A Fog Fog
6:53 AM 48.9 °F 48.0 °F 97% 29.99 in 0.2 mi WSW 6.9 mph - N/A Fog Fog
7:08 AM 51.8 °F 50.0 °F 94% 29.99 in 1.2 mi Calm Calm - N/A   Partly Cloudy
7:11 AM 51.8 °F 50.0 °F 94% 29.99 in 2.0 mi Calm Calm - N/A   Partly Cloudy
7:26 AM 50.0 °F 48.2 °F 94% 30.00 in 3.0 mi Calm Calm - N/A   Partly Cloudy
7:53 AM 52.0 °F 51.1 °F 97% 30.00 in 3.0 mi Calm Calm - N/A   Clear
8:12 AM 51.8 °F 51.8 °F 100% 30.01 in 2.5 mi Calm Calm - N/A   Clear
8:21 AM 53.6 °F 53.6 °F 100% 30.01 in 3.0 mi Calm Calm - N/A   Clear
8:53 AM 54.0 °F 53.1 °F 97% 30.01 in 4.0 mi Calm Calm - N/A   Clear
9:53 AM 62.1 °F 55.9 °F 80% 30.01 in 10.0 mi Calm Calm - N/A   Clear
10:53 AM 69.1 °F 55.9 °F 63% 30.00 in 10.0 mi West 3.5 mph - N/A   Clear
11:53 AM 73.0 °F 55.0 °F 53% 30.01 in 10.0 mi WSW 3.5 mph - N/A   Partly Cloudy
1:53 PM 77.0 °F 54.0 °F 45% 29.99 in 10.0 mi NW 9.2 mph - N/A   Partly Cloudy
2:53 PM 77.0 °F 52.0 °F 42% 29.98 in 10.0 mi West 9.2 mph - N/A   Clear
3:53 PM 73.9 °F 55.0 °F 52% 29.98 in 10.0 mi West 9.2 mph - 0.00 in Rain Light Rain
4:53 PM 73.0 °F 53.1 °F 49% 29.96 in 10.0 mi West 4.6 mph - 0.00 in   Mostly Cloudy
5:53 PM 75.9 °F 54.0 °F 46% 29.95 in 10.0 mi WSW 5.8 mph - N/A   Scattered Clouds
6:53 PM 75.0 °F 53.1 °F 46% 29.96 in 10.0 mi SSW 3.5 mph - N/A   Clear
7:53 PM 73.0 °F 54.0 °F 51% 29.96 in 10.0 mi South 3.5 mph - N/A   Clear
8:53 PM 66.9 °F 55.9 °F 68% 29.96 in 10.0 mi SE 6.9 mph - N/A   Clear
10:53 PM 64.0 °F 55.9 °F 75% 29.98 in 10.0 mi Calm Calm - N/A   Overcast
11:53 PM 62.1 °F 55.9 °F 80% 29.97 in 10.0 mi Calm Calm - N/A   Clear